Stations météo

Publicité
Ajaccio, France (7761): Température de l'air & dewpoint: 20.03.2017 09:00:00 - 26.03.2017 09:00:00 (CEST)Ajaccio, France (7761): Température de l'air 5cm: 20.03.2017 09:00:00 - 26.03.2017 09:00:00 (CEST)Ajaccio, France (7761): Température de l'air -20cm & Température de l'air -100cm: 20.03.2017 09:00:00 - 26.03.2017 09:00:00 (CEST)Ajaccio, France (7761): Vitesse du vent & gusts: 20.03.2017 09:00:00 - 26.03.2017 09:00:00 (CEST)Ajaccio, France (7761): Direction du vent: 20.03.2017 09:00:00 - 26.03.2017 09:00:00 (CEST)Ajaccio, France (7761): reduced air pressure: 20.03.2017 09:00:00 - 26.03.2017 09:00:00 (CEST)Ajaccio, France (7761): visibility: 20.03.2017 09:00:00 - 26.03.2017 09:00:00 (CEST)Ajaccio, France (7761): Ensoleillement: 20.03.2017 09:00:00 - 26.03.2017 09:00:00 (CEST)Ajaccio, France (7761): Quantités de précipitations: 20.03.2017 09:00:00 - 26.03.2017 09:00:00 (CEST)
Date & Time tt [°C] td [°C] tt 5cm [°C] tt -20cm [°C] tt -100cm [°C] ff [km/h] ff [knt] fx [km/h] fx [knt] dd ppp [hPa] vv [km] sd [min] rr [mm]
26.03.2017 09:00:00 9,2 5,9 6,9 14,1 15,3 9 5 22 12 NE 1021,2 50 55 0,0
26.03.2017 08:00:00 6,4 4,1 5,0 14,3 15,4 17 9 22 12 NNE 1021,1 50 12 0,0
26.03.2017 07:00:00 5,9 3,6 4,9 14,5 15,3 13 7 24 13 NNE 1021,2 25 0 0,0
26.03.2017 06:00:00 5,7 3,7 4,1 14,7 15,3 13 7 24 13 NNE 1021,5 25 0 0,0
26.03.2017 05:00:00 5,1 3,8 3,7 14,9 15,3 16 9 22 12 NNE 1021,9 48 0 0,2
26.03.2017 04:00:00 4,8 3,5 3,8 15,1 15,3 13 7 21 12 NNE 1022,1 42 0 0,0
26.03.2017 03:00:00 5,6 4,1 4,5 15,3 15,3 9 5 19 10 NE 1022,1 46 0 0,0
26.03.2017 02:00:00 5,8 4,3 4,6 15,5 15,3 10 5 17 9 NNE 1022,1 42 0 0,0
26.03.2017 01:00:00 6,1 4,7 5,0 15,7 15,3 11 6 17 9 NE 1022,3 47 0 0,0
26.03.2017 00:00:00 6,8 5,4 5,8 15,9 15,3 10 6 16 9 NE 1022,0 52 0 0,0
25.03.2017 23:00:00 7,2 5,8 5,9 16,0 15,3 8 5 16 9 ENE 1022,1 35 0 0,0
25.03.2017 22:00:00 8,0 6,8 6,8 16,1 15,3 8 5 13 7 NE 1021,7 39 0 0,0
25.03.2017 21:00:00 9,6 7,5 7,7 16,2 15,3 7 4 14 7 NE 1021,3 47 0 0,0
25.03.2017 20:00:00 11,0 7,5 8,8 16,3 15,3 6 3 12 6 N 1020,8 60 24 0,0
25.03.2017 19:00:00 12,7 8,4 11,4 16,4 15,3 4 2 16 9 ENE 1019,9 25 58 0,0
25.03.2017 18:00:00 11,6 9,2 10,3 16,4 15,3 7 4 22 12 NNE 1020,0 25 0 0,0
25.03.2017 17:00:00 11,5 10,1 10,4 16,4 15,3 8 5 19 11 NE 1020,9 26 0 3,4
25.03.2017 16:00:00 11,8 10,0 11,0 16,4 15,2 8 5 22 12 WNW 1020,8 3,0 0 4,5
25.03.2017 15:00:00 12,0 10,2 11,5 16,3 15,2 17 9 42 23 W 1020,3 3,3 0 3,0
25.03.2017 14:00:00 13,8 11,8 14,3 16,3 15,2 35 19 50 27 WSW 1019,6 35 0 0,0
25.03.2017 13:00:00 20,0 6,0 19,8 16,3 15,2 16 9 40 22 S 1018,4 35 0 0,0
25.03.2017 12:00:00 20,4 5,2 19,2 16,3 15,2 16 9 37 20 SE 1018,4 45 10 0,0
25.03.2017 11:00:00 20,7 5,1 19,4 16,3 15,2 19 10 40 22 ESE 1018,4 60 18 0,0
25.03.2017 10:00:00 20,5 4,9 17,8 16,4 15,2 19 10 46 25 SE 1017,9 40 19 0,0
25.03.2017 09:00:00 20,2 3,8 18,0 16,5 15,2 19 10 50 27 ESE 1017,7 39 0 0,0
25.03.2017 08:00:00 19,7 3,8 18,3 16,6 15,2 20 11 47 25 ESE 1017,1 40 0 0,0
25.03.2017 07:00:00 19,8 4,3 18,0 16,8 15,2 24 13 65 35 ESE 1016,9 40 0 0,0
25.03.2017 06:00:00 19,1 3,3 12,9 17,0 15,2 24 13 43 23 ESE 1017,0 54 0 0,0
25.03.2017 05:00:00 15,0 3,8 11,2 17,1 15,1 9 5 18 10 ENE 1017,2 41 0 0,0
25.03.2017 04:00:00 14,5 3,9 10,6 17,3 15,2 6 3 23 12 NNE 1017,7 33 0 0,0
25.03.2017 03:00:00 13,0 4,2 10,8 17,5 15,2 7 4 17 9 NNE 1018,1 31 0 0,0
25.03.2017 02:00:00 14,3 4,3 10,7 17,6 15,1 5 3 18 10 N 1017,8 31 0 0,0
25.03.2017 01:00:00 14,3 4,6 10,8 17,8 15,1 6 3 16 9 NE 1017,4 29 0 0,0
25.03.2017 00:00:00 13,2 5,4 10,1 17,8 15,1 5 3 11 6 NNE 1016,7 25 0 0,0
24.03.2017 23:00:00 13,9 5,3 10,8 17,9 15,1 0 0 11 6 N 1016,9 24 0 0,0
24.03.2017 22:00:00 16,8 4,1 12,3 17,8 15,1 7 4 13 7 NNE 1016,8 47 0 0,0
24.03.2017 21:00:00 16,9 6,1 13,6 17,7 15,1 4 2 11 6 NE 1016,9 56 0 0,0
24.03.2017 20:00:00 18,0 8,0 15,3 17,4 15,1 4 2 19 10 W 1016,4 20 4 0,0
24.03.2017 19:00:00 20,4 8,1 20,1 17,2 15,1 14 8 22 12 WSW 1015,9 40 60 0,0
24.03.2017 18:00:00 24,5 3,2 24,3 16,9 15,1 11 6 27 14 SSE 1015,6 30 60 0,0
24.03.2017 17:00:00 24,8 3,4 26,0 16,6 15,1 10 6 34 18 ESE 1015,7 30 57 0,0
24.03.2017 16:00:00 24,3 3,0 26,4 16,4 15,0 16 9 47 26 ENE 1016,1 30 52 0,0
24.03.2017 15:00:00 25,0 1,8 27,4 16,2 15,1 24 13 53 29 ENE 1016,0 30 60 0,0
24.03.2017 14:00:00 25,0 1,8 25,3 16,1 15,1 21 11 52 28 E 1015,7 30 51 0,0
24.03.2017 13:00:00 23,8 1,4 24,6 16,0 15,1 24 13 42 23 E 1016,2 25 9 0,0
24.03.2017 12:00:00 22,9 4,4 22,5 16,0 15,0 8 4 21 11 E 1016,6 20 36 0,0
24.03.2017 11:00:00 20,0 9,3 22,1 16,1 15,0 9 5 21 11 N 1016,8 20 60 0,0
24.03.2017 10:00:00 17,4 10,0 14,3 16,2 15,0 9 5 20 11 ENE 1017,3 15 40 0,0
24.03.2017 09:00:00 14,4 11,0 13,0 16,3 15,0 6 3 23 13 SE 1017,8 15 0 0,0
24.03.2017 08:00:00 13,7 10,7 11,8 16,4 15,0 11 6 18 10 NNW 1016,8 15 0 0,0
24.03.2017 07:00:00 12,5 10,6 11,6 16,5 15,0 9 5 19 10 ENE 1015,9 15 0 0,0
24.03.2017 06:00:00 12,6 10,5 11,3 16,6 15,0 8 5 12 7 NNE 1016,2 14 0 0,0
24.03.2017 05:00:00 12,3 10,2 10,9 16,7 15,0 5 3 19 10 SE 1016,0 14 0 0,0
24.03.2017 04:00:00 13,1 10,3 11,7 16,8 15,0 7 4 14 8 NE 1016,6 12 0 0,0
24.03.2017 03:00:00 12,7 9,7 11,7 16,9 15,0 3 1 14 8 SE 1018,1 11 0 0,0
24.03.2017 02:00:00 13,3 9,7 12,4 17,0 15,0 9 5 14 8 NNE 1018,4 14 0 0,0
24.03.2017 01:00:00 13,8 10,0 12,8 17,1 15,0 4 2 14 7 E 1018,0 17 0 0,0
24.03.2017 00:00:00 14,1 11,3 12,7 17,1 15,0 6 4 13 7 SE 1017,3 15 0 0,0
23.03.2017 23:00:00 15,4 12,0 12,7 17,1 14,9 17 9 28 15 SW 1016,2 12 0 0,0
23.03.2017 22:00:00 15,2 9,8 13,8 17,1 15,0 5 3 19 11 NNE 1015,4 19 0 0,0
23.03.2017 21:00:00 16,1 10,6 14,9 17,1 14,9 10 5 16 9 NE 1016,3 14 0 0,0
23.03.2017 20:00:00 15,6 11,8 15,0 16,9 15,0 5 3 11 6 SSW 1016,7 13 0 0,0
23.03.2017 19:00:00 16,9 10,7 16,4 16,7 14,9 6 3 11 6 W 1016,1 20 0 0,0
23.03.2017 18:00:00 17,7 9,6 18,2 16,4 14,9 4 2 8 4 N 1015,6 20 0 0,0
23.03.2017 17:00:00 17,4 10,3 19,2 16,2 14,9 5 3 12 7 SW 1016,2 20 0 0,0
23.03.2017 16:00:00 17,3 11,1 20,0 15,9 14,9 11 6 26 14 W 1016,4 20 46 0,0
23.03.2017 15:00:00 17,8 11,4 20,4 15,7 14,9 19 10 27 15 WSW 1016,3 25 24 0,0
23.03.2017 14:00:00 18,9 11,0 21,7 15,6 14,9 17 9 25 14 W 1016,5 25 42 0,0
23.03.2017 13:00:00 17,5 11,1 20,9 15,6 14,8 14 8 22 12 W 1016,4 25 32 0,0
23.03.2017 12:00:00 17,8 10,2 20,9 15,6 14,9 9 5 16 9 W 1016,1 10 43 0,0
23.03.2017 11:00:00 16,5 9,7 15,5 15,7 14,8 5 3 10 5 NNE 1015,9 20 2 0,0
23.03.2017 10:00:00 13,6 9,0 11,9 15,9 14,8 5 3 11 6 NE 1015,8 20 0 0,0
23.03.2017 09:00:00 11,6 8,3 10,3 16,0 14,8 9 5 14 7 NE 1015,4 20 0 0,0
23.03.2017 08:00:00 10,9 7,6 10,0 16,2 14,8 10 5 16 9 NE 1014,8 20 0 0,0
23.03.2017 07:00:00 10,4 7,8 9,5 16,4 14,8 7 4 19 10 NE 1014,5 20 0 0,0
23.03.2017 06:00:00 9,5 7,6 8,1 16,5 14,8 10 5 16 9 NE 1014,6 38 0 0,0
23.03.2017 05:00:00 8,6 6,9 7,1 16,8 14,8 5 3 9 5 NE 1014,6 31 0 0,0
23.03.2017 04:00:00 8,9 6,9 7,5 16,9 14,8 5 3 11 6 NE 1014,2 35 0 0,0
23.03.2017 03:00:00 8,4 7,0 6,9 17,1 14,8 8 4 14 8 NE 1014,7 27 0 0,0
23.03.2017 02:00:00 8,8 6,8 7,2 17,3 14,8 8 5 13 7 NE 1015,2 26 0 0,0
23.03.2017 01:00:00 8,4 6,9 7,3 17,4 14,7 8 5 13 7 NE 1015,4 18 0 0,0
23.03.2017 00:00:00 9,5 7,4 7,8 17,6 14,7 5 3 10 5 NE 1015,4 11 0 0,0
22.03.2017 23:00:00 10,3 8,1 8,9 17,6 14,7 7 4 13 7 NE 1015,2 14 0 0,0
22.03.2017 22:00:00 10,8 8,6 9,7 17,6 14,7 9 5 13 7 NE 1015,1 19 0 0,0
22.03.2017 21:00:00 12,1 9,1 10,6 17,5 14,7 5 3 7 4 ENE 1014,6 29 0 0,0
22.03.2017 20:00:00 13,6 10,2 12,0 17,3 14,7 6 4 13 7 SW 1014,3 45 8 0,0
22.03.2017 19:00:00 15,1 10,1 15,4 17,0 14,7 9 5 21 11 SW 1014,2 20 60 0,0
22.03.2017 18:00:00 16,1 10,4 17,7 16,7 14,7 12 7 18 10 SW 1014,4 20 60 0,0
22.03.2017 17:00:00 16,5 10,3 19,6 16,4 14,7 15 8 22 12 SW 1014,5 20 55 0,0
22.03.2017 16:00:00 16,8 10,9 19,4 16,1 14,6 16 8 26 14 SW 1014,4 20 60 0,0
22.03.2017 15:00:00 17,0 10,6 24,1 15,9 14,7 18 10 23 13 WSW 1014,4 30 60 0,0
22.03.2017 14:00:00 17,6 10,9 25,5 15,7 14,7 14 8 19 11 WSW 1014,6 20 60 0,0
22.03.2017 13:00:00 16,9 11,2 21,2 15,7 14,7 14 8 19 10 SW 1014,8 20 57 0,0
22.03.2017 12:00:00 15,6 10,8 20,2 15,7 14,6 8 4 12 6 SW 1014,8 20 42 0,0
22.03.2017 11:00:00 15,2 10,6 15,8 15,8 14,6 4 2 10 5 SW 1014,7 20 12 0,0
22.03.2017 10:00:00 13,4 10,2 12,5 15,9 14,6 5 3 8 4 ENE 1014,3 20 0 0,0
22.03.2017 09:00:00 12,0 9,6 11,4 16,0 14,6 4 2 12 7 ENE 1013,8 23 0 0,0
22.03.2017 08:00:00 11,3 9,2 10,3 16,2 14,6 7 4 11 6 NNE 1013,4 20 0 0,0
22.03.2017 07:00:00 10,6 9,0 9,9 16,3 14,6 8 4 12 6 NE 1013,0 18 0 0,0
22.03.2017 06:00:00 10,7 8,8 9,6 16,4 14,6 7 4 10 5 NE 1012,7 18 0 0,0
22.03.2017 05:00:00 11,4 9,1 10,6 16,5 14,6 8 5 12 7 NNE 1012,7 22 0 0,0
22.03.2017 04:00:00 12,0 9,9 11,6 16,6 14,6 8 4 10 6 NE 1013,3 17 0 0,0
22.03.2017 03:00:00 12,3 9,8 11,1 16,7 14,6 6 3 8 5 E 1013,5 17 0 0,0
22.03.2017 02:00:00 12,7 10,1 12,2 16,8 14,6 7 4 9 5 NE 1013,7 17 0 0,0
22.03.2017 01:00:00 12,6 10,0 12,2 16,9 14,5 3 2 8 4 NE 1013,9 14 0 0,0
22.03.2017 00:00:00 13,1 10,3 11,6 16,9 14,6 5 3 7 4 NE 1013,8 16 0 0,0
21.03.2017 23:00:00 13,8 10,2 13,3 16,9 14,6 4 2 9 5 E 1013,6 29 0 0,0
21.03.2017 22:00:00 14,4 10,8 13,1 16,9 14,6 5 3 9 5 SSE 1013,4 25 0 0,0
21.03.2017 21:00:00 14,5 10,9 13,2 16,7 14,5 4 2 13 7 SSE 1012,9 16 0 0,0
21.03.2017 20:00:00 14,9 11,5 14,6 16,5 14,5 5 3 19 10 SSE 1012,3 27 0 0,0
21.03.2017 19:00:00 16,2 11,6 16,4 16,2 14,5 12 7 21 11 S 1011,8 20 39 0,0
21.03.2017 18:00:00 16,7 11,8 17,8 16,0 14,5 13 7 19 11 S 1011,5 20 29 0,0
21.03.2017 17:00:00 16,9 12,0 18,3 15,6 14,5 16 8 22 12 S 1011,3 20 47 0,0
21.03.2017 16:00:00 18,0 12,7 20,9 15,4 14,5 18 10 29 16 SSW 1011,7 10 52 0,0
21.03.2017 15:00:00 17,8 13,1 19,8 15,2 14,5 20 11 29 16 SSW 1012,0 20 19 0,0
21.03.2017 14:00:00 17,0 13,3 20,9 15,1 14,5 16 9 21 12 SSW 1012,5 20 41 0,0
21.03.2017 13:00:00 16,9 12,8 21,8 15,0 14,5 12 7 16 8 SW 1012,7 20 11 0,0
21.03.2017 12:00:00 15,8 12,0 19,9 15,0 14,5 8 4 10 5 W 1012,8 15 1 0,0
21.03.2017 11:00:00 15,6 11,6 17,4 15,1 14,5 4 2 6 4 - 1012,9 10 0 0,0
21.03.2017 10:00:00 14,6 11,4 13,8 15,2 14,5 2 1 9 5 ENE 1012,6 15 0 0,0
21.03.2017 09:00:00 12,9 11,0 12,2 15,2 14,5 6 3 11 6 ENE 1012,4 15 0 0,0
21.03.2017 08:00:00 12,3 10,7 11,6 15,3 14,5 4 2 8 4 NE 1012,2 15 0 0,0
21.03.2017 07:00:00 12,4 10,6 11,8 15,4 14,5 3 2 6 3 NNE 1011,8 30 0 0,0
21.03.2017 06:00:00 12,7 10,8 11,8 15,4 14,5 3 1 6 3 ENE 1011,4 14 0 0,0
21.03.2017 05:00:00 13,2 10,7 12,4 15,5 14,5 4 2 7 4 NE 1011,3 13 0 0,0
21.03.2017 04:00:00 13,1 11,2 12,5 15,5 14,5 6 3 9 5 ENE 1011,6 13 0 0,0
21.03.2017 03:00:00 13,6 11,3 13,2 15,6 14,5 4 2 8 4 NE 1012,3 13 0 0,0
21.03.2017 02:00:00 13,6 11,1 13,1 15,6 14,4 5 3 8 4 ENE 1012,5 16 0 0,0
21.03.2017 01:00:00 14,1 11,4 12,7 15,6 14,5 0 0 5 3 N 1012,8 13 0 0,0
21.03.2017 00:00:00 13,8 11,3 12,9 15,6 14,5 0 0 5 3 N 1012,8 13 0 0,0
20.03.2017 23:00:00 14,3 11,4 13,8 15,6 14,4 5 3 8 5 NE 1012,8 15 0 0,0
20.03.2017 22:00:00 14,7 11,5 13,9 15,6 14,4 5 3 7 4 E 1012,8 14 0 0,0
20.03.2017 21:00:00 14,7 11,5 14,5 15,5 14,4 3 1 8 4 SSE 1012,6 19 0 0,0
20.03.2017 20:00:00 15,0 11,9 14,7 15,4 14,4 7 4 9 5 SSW 1012,5 23 0 0,0
20.03.2017 19:00:00 15,7 11,5 15,9 15,3 14,4 5 3 9 5 SSW 1012,3 30 0 0,0
20.03.2017 18:00:00 16,0 11,6 17,5 15,1 14,4 5 3 9 5 W 1012,2 30 0 0,0
20.03.2017 17:00:00 15,9 11,9 17,6 14,8 14,4 7 4 18 10 WSW 1012,6 30 0 0,0
20.03.2017 16:00:00 16,2 11,6 17,9 14,6 14,4 12 7 18 10 WSW 1012,7 30 0 0,0
20.03.2017 15:00:00 17,1 11,6 20,9 14,4 14,4 13 7 18 10 WSW 1012,6 30 0 0,0
20.03.2017 14:00:00 16,8 11,1 20,5 14,3 14,4 13 7 21 12 W 1012,8 30 0 0,0
20.03.2017 13:00:00 16,9 11,0 21,6 14,2 14,4 13 7 27 15 WSW 1012,9 30 7 0,0
20.03.2017 12:00:00 16,5 10,1 20,0 14,2 14,4 10 6 16 9 W 1013,1 30 27 0,0
20.03.2017 11:00:00 15,8 10,5 17,4 14,3 14,4 8 4 13 7 W 1013,3 30 12 0,0
20.03.2017 10:00:00 14,2 9,2 12,8 14,4 14,4 7 4 13 7 N 1013,2 20 1 0,0
20.03.2017 09:00:00 - - - - - - - - - - - - - -

tt = Température de l'air
td = dewpoint
tt 5cm = Température de l'air 5cm
tt -20cm = Température de l'air -20cm
tt -100cm = Température de l'air -100cm
ff = Vitesse du vent
fx = gusts
dd = Direction du vent
ppp = reduced air pressure
vv = visibility
sd = Ensoleillement
rr = Quantités de précipitations

stations d'obs. à proximité